Time,TemperatureF,DewpointF,PressureIn,WindDirection,WindDirectionDegrees,WindSpeedMPH,WindSpeedGustMPH,Humidity,HourlyPrecipIn,Conditions,Clouds,dailyrainin,SoftwareType,DateUTC
2013-08-03 00:02:00,65.0,53.0,-100.00,East,80,11.0,12.0,65,-99.99,,,-99.99,,2013-08-03 05:02:00,
2013-08-03 00:32:00,65.0,53.0,-100.00,East,80,11.0,12.0,65,-99.99,,,-99.99,,2013-08-03 05:32:00,
2013-08-03 00:42:00,65.0,53.0,-100.00,East,80,11.0,12.0,65,-99.99,,,-99.99,,2013-08-03 05:42:00,
2013-08-03 00:52:00,65.0,53.0,-100.00,East,80,11.0,12.0,65,-99.99,,,-99.99,,2013-08-03 05:52:00,
2013-08-03 01:02:00,66.0,52.0,-100.00,East,90,9.0,11.0,62,-99.99,,,-99.99,,2013-08-03 06:02:00,
2013-08-03 01:42:00,66.0,52.0,-100.00,East,90,9.0,11.0,62,-99.99,,,-99.99,,2013-08-03 06:42:00,
2013-08-03 01:52:00,66.0,52.0,-100.00,East,90,9.0,11.0,62,-99.99,,,-99.99,,2013-08-03 06:52:00,
2013-08-03 02:02:00,65.0,53.0,-100.00,East,95,6.0,7.0,65,-99.99,,,-99.99,,2013-08-03 07:02:00,
2013-08-03 02:43:00,65.0,53.0,-100.00,East,95,6.0,7.0,65,-99.99,,,-99.99,,2013-08-03 07:43:00,
2013-08-03 02:52:00,65.0,53.0,-100.00,East,95,6.0,7.0,65,-99.99,,,-99.99,,2013-08-03 07:52:00,
2013-08-03 04:02:00,61.0,55.0,-100.00,East,90,7.0,9.0,79,-99.99,,,-99.99,,2013-08-03 09:02:00,
2013-08-03 04:43:00,61.0,55.0,-100.00,East,90,7.0,9.0,79,-99.99,,,-99.99,,2013-08-03 09:43:00,
2013-08-03 04:53:00,61.0,55.0,-100.00,East,90,7.0,9.0,79,-99.99,,,-99.99,,2013-08-03 09:53:00,
2013-08-03 05:02:00,62.0,54.0,-100.00,East,85,10.0,11.0,76,-99.99,,,-99.99,,2013-08-03 10:02:00,
2013-08-03 05:43:00,62.0,54.0,-100.00,East,85,10.0,11.0,76,-99.99,,,-99.99,,2013-08-03 10:43:00,
2013-08-03 05:53:00,62.0,54.0,-100.00,East,85,10.0,11.0,76,-99.99,,,-99.99,,2013-08-03 10:53:00,
2013-08-03 06:02:00,61.0,55.0,-100.00,East,95,10.0,12.0,82,-99.99,,,-99.99,,2013-08-03 11:02:00,
2013-08-03 06:43:00,61.0,55.0,-100.00,East,95,10.0,12.0,82,-99.99,,,-99.99,,2013-08-03 11:43:00,
2013-08-03 06:53:00,61.0,55.0,-100.00,East,95,10.0,12.0,82,-99.99,,,-99.99,,2013-08-03 11:53:00,
2013-08-03 07:02:00,61.0,57.0,-100.00,East,100,7.0,9.0,87,-99.99,,,-99.99,,2013-08-03 12:02:00,
2013-08-03 07:43:00,61.0,57.0,-100.00,East,100,7.0,9.0,87,-99.99,,,-99.99,,2013-08-03 12:43:00,
2013-08-03 07:53:00,61.0,57.0,-100.00,East,100,7.0,9.0,87,-99.99,,,-99.99,,2013-08-03 12:53:00,
2013-08-03 08:02:00,61.0,58.0,-100.00,ESE,120,2.0,4.0,88,-99.99,,,-99.99,,2013-08-03 13:02:00,
2013-08-03 08:33:00,61.0,58.0,-100.00,ESE,120,2.0,4.0,88,-99.99,,,-99.99,,2013-08-03 13:33:00,
2013-08-03 08:43:00,61.0,58.0,-100.00,ESE,120,2.0,4.0,88,-99.99,,,-99.99,,2013-08-03 13:43:00,
2013-08-03 08:52:00,61.0,58.0,-100.00,ESE,120,2.0,4.0,88,-99.99,,,-99.99,,2013-08-03 13:52:00,
2013-08-03 09:02:00,63.0,58.0,-100.00,ESE,105,4.0,5.0,82,-99.99,,,-99.99,,2013-08-03 14:02:00,
2013-08-03 09:43:00,63.0,58.0,-100.00,ESE,105,4.0,5.0,82,-99.99,,,-99.99,,2013-08-03 14:43:00,
2013-08-03 09:52:00,63.0,58.0,-100.00,ESE,105,4.0,5.0,82,-99.99,,,-99.99,,2013-08-03 14:52:00,
2013-08-03 12:02:00,73.0,59.0,-100.00,SE,145,4.0,6.0,62,-99.99,,,-99.99,,2013-08-03 17:02:00,
2013-08-03 12:43:00,73.0,59.0,-100.00,SE,145,4.0,6.0,62,-99.99,,,-99.99,,2013-08-03 17:43:00,
2013-08-03 12:52:00,73.0,59.0,-100.00,SE,145,4.0,6.0,62,-99.99,,,-99.99,,2013-08-03 17:52:00,
2013-08-03 13:02:00,75.0,57.0,-100.00,East,80,6.0,9.0,54,-99.99,,,-99.99,,2013-08-03 18:02:00,
2013-08-03 13:32:00,75.0,57.0,-100.00,East,80,6.0,9.0,54,-99.99,,,-99.99,,2013-08-03 18:32:00,
2013-08-03 13:43:00,75.0,57.0,-100.00,East,80,6.0,9.0,54,-99.99,,,-99.99,,2013-08-03 18:43:00,
2013-08-03 13:53:00,75.0,57.0,-100.00,East,80,6.0,9.0,54,-99.99,,,-99.99,,2013-08-03 18:53:00,
2013-08-03 14:02:00,76.0,57.0,-100.00,SE,140,5.0,6.0,51,-99.99,,,-99.99,,2013-08-03 19:02:00,
2013-08-03 14:43:00,76.0,57.0,-100.00,SE,140,5.0,6.0,51,-99.99,,,-99.99,,2013-08-03 19:43:00,
2013-08-03 14:53:00,76.0,57.0,-100.00,SE,140,5.0,6.0,51,-99.99,,,-99.99,,2013-08-03 19:53:00,
2013-08-03 15:02:00,76.0,56.0,-100.00,East,95,11.0,15.0,49,-99.99,,,-99.99,,2013-08-03 20:02:00,
2013-08-03 15:32:00,76.0,56.0,-100.00,East,95,11.0,15.0,49,-99.99,,,-99.99,,2013-08-03 20:32:00,
2013-08-03 15:42:00,76.0,56.0,-100.00,East,95,11.0,15.0,49,-99.99,,,-99.99,,2013-08-03 20:42:00,
2013-08-03 15:52:00,76.0,56.0,-100.00,East,95,11.0,15.0,49,-99.99,,,-99.99,,2013-08-03 20:52:00,
2013-08-03 16:02:00,78.0,55.0,-100.00,East,100,10.0,12.0,45,-99.99,,,-99.99,,2013-08-03 21:02:00,
2013-08-03 16:42:00,78.0,55.0,-100.00,East,100,10.0,12.0,45,-99.99,,,-99.99,,2013-08-03 21:42:00,
2013-08-03 16:52:00,78.0,55.0,-100.00,East,100,10.0,12.0,45,-99.99,,,-99.99,,2013-08-03 21:52:00,
2013-08-03 17:02:00,78.0,55.0,-100.00,ESE,105,6.0,9.0,45,-99.99,,,-99.99,,2013-08-03 22:02:00,
2013-08-03 17:33:00,78.0,55.0,-100.00,ESE,105,6.0,9.0,45,-99.99,,,-99.99,,2013-08-03 22:33:00,
2013-08-03 17:43:00,78.0,55.0,-100.00,ESE,105,6.0,9.0,45,-99.99,,,-99.99,,2013-08-03 22:43:00,
2013-08-03 17:52:00,78.0,55.0,-100.00,ESE,105,6.0,9.0,45,-99.99,,,-99.99,,2013-08-03 22:52:00,
2013-08-03 18:02:00,78.0,55.0,-100.00,East,95,12.0,14.0,45,-99.99,,,-99.99,,2013-08-03 23:02:00,
2013-08-03 18:43:00,78.0,55.0,-100.00,East,95,12.0,14.0,45,-99.99,,,-99.99,,2013-08-03 23:43:00,
2013-08-03 18:52:00,78.0,55.0,-100.00,East,95,12.0,14.0,45,-99.99,,,-99.99,,2013-08-03 23:52:00,
2013-08-03 19:02:00,78.0,55.0,-100.00,ESE,105,7.0,14.0,45,-99.99,,,-99.99,,2013-08-04 00:02:00,
2013-08-03 19:42:00,78.0,55.0,-100.00,ESE,105,7.0,14.0,45,-99.99,,,-99.99,,2013-08-04 00:42:00,
2013-08-03 19:53:00,78.0,55.0,-100.00,ESE,105,7.0,14.0,45,-99.99,,,-99.99,,2013-08-04 00:53:00,
2013-08-03 20:02:00,75.0,54.0,-100.00,ESE,110,9.0,11.0,49,-99.99,,,-99.99,,2013-08-04 01:02:00,
2013-08-03 20:42:00,75.0,54.0,-100.00,ESE,110,9.0,11.0,49,-99.99,,,-99.99,,2013-08-04 01:42:00,
2013-08-03 20:53:00,75.0,54.0,-100.00,ESE,110,9.0,11.0,49,-99.99,,,-99.99,,2013-08-04 01:53:00,
2013-08-03 21:02:00,72.0,54.0,-100.00,East,90,9.0,11.0,53,-99.99,,,-99.99,,2013-08-04 02:02:00,
2013-08-03 21:42:00,72.0,54.0,-100.00,East,90,9.0,11.0,53,-99.99,,,-99.99,,2013-08-04 02:42:00,
2013-08-03 21:52:00,72.0,54.0,-100.00,East,90,9.0,11.0,53,-99.99,,,-99.99,,2013-08-04 02:52:00,
2013-08-03 22:02:00,69.0,55.0,-100.00,East,95,10.0,12.0,60,-99.99,,,-99.99,,2013-08-04 03:02:00,
2013-08-03 22:42:00,69.0,55.0,-100.00,East,95,10.0,12.0,60,-99.99,,,-99.99,,2013-08-04 03:42:00,
2013-08-03 22:52:00,69.0,55.0,-100.00,East,95,10.0,12.0,60,-99.99,,,-99.99,,2013-08-04 03:52:00,